| time (UTC) | temp F | wind direction | speed MPH | gust MPH | rain 1hr in | rain 24hr in | rain mn in | humidity % | barometer mb |
| 20260505091355 | 58 | 151 | 2.0 | 3.0 | 0.00 | 0.00 | 0.00 | 82 | 1016.0 |
| 20260505090852 | 58 | 201 | 4.0 | 7.0 | 0.00 | 0.00 | 0.00 | 81 | 1015.9 |
| 20260505090350 | 58 | 218 | 4.0 | 4.0 | 0.00 | 0.00 | 0.00 | 81 | 1016.2 |
| 20260505085847 | 57 | 198 | 3.0 | 3.0 | 0.00 | 0.00 | 0.00 | 82 | 1016.1 |
| 20260505085345 | 57 | 181 | 3.0 | 4.0 | 0.00 | 0.00 | 0.00 | 82 | 1015.9 |
| 20260505084843 | 57 | 192 | 2.0 | 3.0 | 0.00 | 0.00 | 0.00 | 82 | 1016.1 |
| 20260505084341 | 57 | 205 | 2.0 | 3.0 | 0.00 | 0.00 | 0.00 | 82 | 1016.1 |
| 20260505083838 | 58 | 204 | 3.0 | 3.0 | 0.00 | 0.00 | 0.00 | 81 | 1016.0 |
| 20260505083335 | 58 | 182 | 3.0 | 4.0 | 0.00 | 0.00 | 0.00 | 81 | 1016.1 |
| 20260505082832 | 58 | 186 | 2.0 | 2.0 | 0.00 | 0.00 | 0.00 | 80 | 1016.0 |
| 20260505082328 | 58 | 186 | 2.0 | 2.0 | 0.00 | 0.00 | 0.00 | 80 | 1016.0 |
| 20260505081825 | 58 | 199 | 3.0 | 3.0 | 0.00 | 0.00 | 0.00 | 80 | 1016.0 |
| 20260505081321 | 58 | 186 | 3.0 | 3.0 | 0.00 | 0.00 | 0.00 | 79 | 1015.9 |
| 20260505080819 | 58 | 190 | 4.0 | 4.0 | 0.00 | 0.00 | 0.00 | 79 | 1015.9 |
| 20260505080315 | 59 | 198 | 3.0 | 3.0 | 0.00 | 0.00 | 0.00 | 78 | 1015.9 |
| 20260505075810 | 59 | 192 | 2.0 | 2.0 | 0.00 | 0.00 | 0.00 | 77 | 1015.9 |
| 20260505075307 | 59 | 200 | 3.0 | 3.0 | 0.00 | 0.00 | 0.00 | 77 | 1015.7 |
| 20260505074805 | 59 | 204 | 3.0 | 4.0 | 0.00 | 0.00 | 0.00 | 78 | 1015.8 |
| 20260505074301 | 59 | 207 | 3.0 | 4.0 | 0.00 | 0.00 | 0.00 | 77 | 1015.7 |
| 20260505073759 | 59 | 212 | 3.0 | 3.0 | 0.00 | 0.00 | 0.00 | 76 | 1015.6 |
| 20260505073257 | 59 | 184 | 3.0 | 3.0 | 0.00 | 0.00 | 0.00 | 76 | 1015.6 |
| 20260505072753 | 59 | 209 | 3.0 | 3.0 | 0.00 | 0.00 | 0.00 | 76 | 1015.7 |
| 20260505072249 | 59 | 188 | 4.0 | 4.0 | 0.00 | 0.00 | 0.00 | 76 | 1015.4 |
| 20260505071745 | 60 | 219 | 3.0 | 3.0 | 0.00 | 0.00 | 0.00 | 76 | 1015.4 |
| 20260505071242 | 60 | 198 | 4.0 | 4.0 | 0.00 | 0.00 | 0.00 | 76 | 1015.5 |
| 20260505070740 | 60 | 202 | 4.0 | 6.0 | 0.00 | 0.00 | 0.00 | 75 | 1015.4 |
| 20260505070235 | 60 | 196 | 4.0 | 4.0 | 0.00 | 0.00 | 0.00 | 75 | 1015.5 |
| 20260505065732 | 60 | 173 | 3.0 | 3.0 | 0.00 | 0.00 | 0.00 | 75 | 1015.4 |
| 20260505065229 | 60 | 215 | 3.0 | 4.0 | 0.00 | 0.00 | 0.00 | 75 | 1015.3 |
| 20260505064726 | 60 | 184 | 4.0 | 4.0 | 0.00 | 0.00 | 0.00 | 75 | 1015.4 |
| 20260505064223 | 60 | 143 | 3.0 | 6.0 | 0.00 | 0.00 | 0.00 | 75 | 1015.6 |
| 20260505063720 | 60 | 196 | 3.0 | 3.0 | 0.00 | 0.00 | 0.00 | 75 | 1015.5 |
| 20260505063216 | 60 | 189 | 2.0 | 2.0 | 0.00 | 0.00 | 0.00 | 74 | 1015.8 |
| 20260505062713 | 60 | 203 | 3.0 | 3.0 | 0.00 | 0.00 | 0.00 | 74 | 1015.7 |
| 20260505062206 | 60 | 204 | 2.0 | 3.0 | 0.00 | 0.00 | 0.00 | 73 | 1015.6 |
| 20260505061702 | 61 | 182 | 4.0 | 4.0 | 0.00 | 0.00 | 0.00 | 73 | 1015.5 |
| 20260505061200 | 61 | 215 | 3.0 | 4.0 | 0.00 | 0.00 | 0.00 | 72 | 1015.7 |
| 20260505060657 | 61 | 188 | 3.0 | 3.0 | 0.00 | 0.00 | 0.00 | 72 | 1015.5 |
| 20260505060153 | 61 | 194 | 2.0 | 3.0 | 0.00 | 0.00 | 0.00 | 72 | 1015.6 |
| 20260505055648 | 61 | 183 | 2.0 | 2.0 | 0.00 | 0.00 | 0.00 | 72 | 1015.8 |
| 20260505055145 | 61 | 209 | 4.0 | 4.0 | 0.00 | 0.00 | 0.00 | 71 | 1015.8 |
| 20260505054643 | 61 | 208 | 3.0 | 4.0 | 0.00 | 0.00 | 0.00 | 70 | 1015.6 |
| 20260505054141 | 62 | 209 | 4.0 | 4.0 | 0.00 | 0.00 | 0.00 | 70 | 1015.7 |
| 20260505053638 | 62 | 190 | 4.0 | 6.0 | 0.00 | 0.00 | 0.00 | 69 | 1015.6 |
| 20260505053134 | 62 | 199 | 3.0 | 3.0 | 0.00 | 0.00 | 0.00 | 69 | 1015.8 |
| 20260505052632 | 62 | 186 | 4.0 | 6.0 | 0.00 | 0.00 | 0.00 | 68 | 1015.9 |
| 20260505052129 | 62 | 203 | 4.0 | 4.0 | 0.00 | 0.00 | 0.00 | 69 | 1015.8 |
| 20260505051626 | 62 | 188 | 3.0 | 3.0 | 0.00 | 0.00 | 0.00 | 69 | 1015.8 |
| 20260505051124 | 63 | 200 | 4.0 | 4.0 | 0.00 | 0.00 | 0.00 | 68 | 1015.9 |
| 20260505050621 | 63 | 187 | 5.0 | 8.0 | 0.00 | 0.00 | 0.00 | 68 | 1015.8 |
| 20260505050120 | 63 | 156 | 4.0 | 4.0 | 0.00 | 0.00 | 0.00 | 68 | 1016.0 |
| 20260505041549 | 63 | 223 | 4.0 | 6.0 | 0.00 | 0.00 | 0.00 | 66 | 1015.9 |
| 20260505041047 | 64 | 216 | 6.0 | 8.0 | 0.00 | 0.00 | 0.00 | 66 | 1015.9 |
| 20260505040544 | 64 | 266 | 3.0 | 4.0 | 0.00 | 0.00 | 0.00 | 67 | 1015.9 |
| 20260505040041 | 64 | 217 | 4.0 | 6.0 | 0.00 | 0.00 | 0.00 | 66 | 1015.9 |
| 20260505035537 | 64 | 201 | 7.0 | 8.0 | 0.00 | 0.00 | 0.00 | 65 | 1015.8 |
| 20260505035034 | 64 | 207 | 6.0 | 7.0 | 0.00 | 0.00 | 0.00 | 65 | 1015.9 |
| 20260505034530 | 64 | 211 | 7.0 | 9.0 | 0.00 | 0.00 | 0.00 | 65 | 1015.6 |
| 20260505034027 | 64 | 206 | 4.0 | 7.0 | 0.00 | 0.00 | 0.00 | 64 | 1015.6 |
| 20260505033524 | 64 | 175 | 5.0 | 7.0 | 0.00 | 0.00 | 0.00 | 64 | 1015.6 |
| 20260505033022 | 65 | 194 | 6.0 | 8.0 | 0.00 | 0.00 | 0.00 | 63 | 1015.6 |
| 20260505032520 | 65 | 201 | 7.0 | 10.0 | 0.00 | 0.00 | 0.00 | 63 | 1015.7 |
| 20260505032016 | 65 | 220 | 6.0 | 7.0 | 0.00 | 0.00 | 0.00 | 63 | 1015.6 |
| 20260505031513 | 65 | 207 | 7.0 | 9.0 | 0.00 | 0.00 | 0.00 | 63 | 1015.6 |
| 20260505031009 | 65 | 176 | 7.0 | 9.0 | 0.00 | 0.00 | 0.00 | 63 | 1015.5 |
| 20260505030506 | 65 | 208 | 7.0 | 8.0 | 0.00 | 0.00 | 0.00 | 63 | 1015.8 |
| 20260505030001 | 65 | 202 | 8.0 | 9.0 | 0.00 | 0.00 | 0.00 | 63 | 1015.6 |
| 20260505025458 | 65 | 230 | 6.0 | 7.0 | 0.00 | 0.00 | 0.00 | 63 | 1015.7 |
| 20260505024958 | 65 | 189 | 6.0 | 8.0 | 0.00 | 0.00 | 0.00 | 64 | 1015.6 |
| 20260505024454 | 65 | 178 | 5.0 | 6.0 | 0.00 | 0.00 | 0.00 | 64 | 1015.4 |
| 20260505023951 | 66 | 186 | 6.0 | 7.0 | 0.00 | 0.00 | 0.00 | 64 | 1015.3 |
| 20260505023448 | 66 | 191 | 5.0 | 8.0 | 0.00 | 0.00 | 0.00 | 64 | 1015.4 |
| 20260505022946 | 66 | 202 | 7.0 | 9.0 | 0.00 | 0.00 | 0.00 | 64 | 1015.5 |
| 20260505022443 | 66 | 181 | 8.0 | 10.0 | 0.00 | 0.00 | 0.00 | 64 | 1015.3 |
| 20260505021940 | 66 | 204 | 8.0 | 9.0 | 0.00 | 0.00 | 0.00 | 65 | 1015.5 |
| 20260505021436 | 66 | 206 | 7.0 | 9.0 | 0.00 | 0.00 | 0.00 | 65 | 1015.5 |
| 20260505020932 | 66 | 214 | 6.0 | 8.0 | 0.00 | 0.00 | 0.00 | 65 | 1015.4 |
| 20260505020428 | 66 | 201 | 5.0 | 7.0 | 0.00 | 0.00 | 0.00 | 65 | 1015.5 |
| 20260505015925 | 66 | 182 | 8.0 | 10.0 | 0.00 | 0.00 | 0.00 | 65 | 1015.5 |
| 20260505015422 | 66 | 181 | 11.0 | 13.0 | 0.00 | 0.00 | 0.00 | 64 | 1015.3 |
| 20260505014919 | 66 | 194 | 6.0 | 9.0 | 0.00 | 0.00 | 0.00 | 65 | 1015.4 |
| 20260505014416 | 66 | 204 | 6.0 | 8.0 | 0.00 | 0.00 | 0.00 | 65 | 1015.3 |
| 20260505013913 | 66 | 202 | 5.0 | 6.0 | 0.00 | 0.00 | 0.00 | 65 | 1015.4 |
| 20260505013410 | 66 | 198 | 5.0 | 6.0 | 0.00 | 0.00 | 0.00 | 65 | 1015.1 |
| 20260505012908 | 66 | 206 | 6.0 | 7.0 | 0.00 | 0.00 | 0.00 | 65 | 1015.4 |
| 20260505012406 | 66 | 181 | 7.0 | 8.0 | 0.00 | 0.00 | 0.00 | 65 | 1015.2 |
| 20260505011901 | 67 | 186 | 6.0 | 9.0 | 0.00 | 0.00 | 0.00 | 65 | 1015.4 |
| 20260505011358 | 67 | 201 | 7.0 | 9.0 | 0.00 | 0.00 | 0.00 | 64 | 1015.0 |
| 20260505010855 | 67 | 183 | 6.0 | 7.0 | 0.00 | 0.00 | 0.00 | 64 | 1014.9 |
| 20260505010350 | 67 | 180 | 7.0 | 9.0 | 0.00 | 0.00 | 0.00 | 64 | 1014.9 |
| 20260505005847 | 67 | 185 | 5.0 | 6.0 | 0.00 | 0.00 | 0.00 | 64 | 1014.9 |
| 20260505005344 | 67 | 185 | 6.0 | 8.0 | 0.00 | 0.00 | 0.00 | 64 | 1014.7 |
| 20260505004841 | 67 | 192 | 5.0 | 6.0 | 0.00 | 0.00 | 0.00 | 64 | 1014.6 |
| 20260505004337 | 67 | 197 | 7.0 | 8.0 | 0.00 | 0.00 | 0.00 | 64 | 1014.7 |
| 20260505003835 | 67 | 185 | 4.0 | 4.0 | 0.00 | 0.00 | 0.00 | 64 | 1014.5 |
| 20260505003332 | 67 | 186 | 7.0 | 9.0 | 0.00 | 0.00 | 0.00 | 64 | 1014.6 |
| 20260505002828 | 68 | 175 | 9.0 | 10.0 | 0.00 | 0.00 | 0.00 | 62 | 1014.6 |
| 20260505002325 | 68 | 188 | 6.0 | 6.0 | 0.00 | 0.00 | 0.00 | 63 | 1014.4 |
| 20260505001823 | 68 | 226 | 4.0 | 6.0 | 0.00 | 0.00 | 0.00 | 63 | 1014.5 |
| 20260505001320 | 68 | 189 | 6.0 | 7.0 | 0.00 | 0.00 | 0.00 | 62 | 1014.5 |
| 20260505000817 | 68 | 193 | 8.0 | 9.0 | 0.00 | 0.00 | 0.00 | 62 | 1014.4 |
| 20260505000315 | 68 | 181 | 7.0 | 8.0 | 0.00 | 0.00 | 0.00 | 61 | 1014.3 |
| 20260504235811 | 69 | 194 | 7.0 | 8.0 | 0.00 | 0.00 | 0.00 | 61 | 1014.2 |
| 20260504235308 | 69 | 196 | 7.0 | 9.0 | 0.00 | 0.00 | 0.00 | 61 | 1014.2 |
| 20260504234805 | 69 | 181 | 7.0 | 8.0 | 0.00 | 0.00 | 0.00 | 60 | 1014.1 |
| 20260504234303 | 69 | 206 | 5.0 | 6.0 | 0.00 | 0.00 | 0.00 | 60 | 1014.0 |
| 20260504233759 | 69 | 183 | 9.0 | 10.0 | 0.00 | 0.00 | 0.00 | 59 | 1013.9 |
| 20260504233255 | 70 | 197 | 7.0 | 9.0 | 0.00 | 0.00 | 0.00 | 58 | 1013.9 |
| 20260504232752 | 70 | 175 | 8.0 | 8.0 | 0.00 | 0.00 | 0.00 | 59 | 1013.9 |
| 20260504232249 | 70 | 187 | 10.0 | 11.0 | 0.00 | 0.00 | 0.00 | 58 | 1013.8 |
| 20260504231746 | 70 | 198 | 6.0 | 7.0 | 0.00 | 0.00 | 0.00 | 58 | 1013.8 |
| 20260504231242 | 71 | 181 | 13.0 | 17.0 | 0.00 | 0.00 | 0.00 | 58 | 1013.8 |
| 20260504230738 | 71 | 194 | 9.0 | 13.0 | 0.00 | 0.00 | 0.00 | 57 | 1013.7 |
| 20260504230237 | 71 | 188 | 6.0 | 7.0 | 0.00 | 0.00 | 0.00 | 57 | 1013.9 |
| 20260504225735 | 71 | 206 | 8.0 | 10.0 | 0.00 | 0.00 | 0.00 | 56 | 1013.6 |
| 20260504225231 | 72 | 180 | 10.0 | 13.0 | 0.00 | 0.00 | 0.00 | 56 | 1013.8 |
| 20260504224728 | 72 | 204 | 12.0 | 14.0 | 0.00 | 0.00 | 0.00 | 55 | 1013.4 |
| 20260504224226 | 72 | 196 | 9.0 | 11.0 | 0.00 | 0.00 | 0.00 | 55 | 1013.5 |
| 20260504223722 | 72 | 205 | 9.0 | 9.0 | 0.00 | 0.00 | 0.00 | 54 | 1013.7 |
| 20260504223217 | 73 | 204 | 7.0 | 9.0 | 0.00 | 0.00 | 0.00 | 54 | 1013.5 |
| 20260504222715 | 73 | 218 | 9.0 | 11.0 | 0.00 | 0.00 | 0.00 | 53 | 1013.3 |
| 20260504222211 | 74 | 188 | 9.0 | 10.0 | 0.00 | 0.00 | 0.00 | 53 | 1013.3 |
| 20260504221709 | 74 | 165 | 12.0 | 18.0 | 0.00 | 0.00 | 0.00 | 52 | 1013.4 |
| 20260504221206 | 74 | 198 | 6.0 | 7.0 | 0.00 | 0.00 | 0.00 | 51 | 1013.3 |
| 20260504220702 | 75 | 161 | 13.0 | 17.0 | 0.00 | 0.00 | 0.00 | 48 | 1013.3 |
| 20260504220200 | 77 | 203 | 11.0 | 11.0 | 0.00 | 0.00 | 0.00 | 40 | 1013.2 |
| 20260504215656 | 77 | 213 | 6.0 | 7.0 | 0.00 | 0.00 | 0.00 | 37 | 1013.3 |
| 20260504215154 | 77 | 226 | 7.0 | 9.0 | 0.00 | 0.00 | 0.00 | 37 | 1013.3 |
| 20260504214649 | 78 | 215 | 6.0 | 8.0 | 0.00 | 0.00 | 0.00 | 36 | 1013.4 |
| 20260504214146 | 78 | 206 | 4.0 | 7.0 | 0.00 | 0.00 | 0.00 | 36 | 1013.3 |
| 20260504213642 | 78 | 38 | 3.0 | 4.0 | 0.00 | 0.00 | 0.00 | 37 | 1013.3 |
| 20260504213139 | 78 | 84 | 1.0 | 2.0 | 0.00 | 0.00 | 0.00 | 36 | 1013.3 |
| 20260504212636 | 78 | 215 | 6.0 | 9.0 | 0.00 | 0.00 | 0.00 | 36 | 1013.5 |
| 20260504212132 | 78 | 181 | 8.0 | 9.0 | 0.00 | 0.00 | 0.00 | 36 | 1013.6 |
| 20260504211630 | 78 | 205 | 6.0 | 11.0 | 0.00 | 0.00 | 0.00 | 36 | 1013.5 |
| 20260504211126 | 78 | 198 | 8.0 | 9.0 | 0.00 | 0.00 | 0.00 | 38 | 1013.4 |
| 20260504210624 | 79 | 195 | 6.0 | 8.0 | 0.00 | 0.00 | 0.00 | 36 | 1013.6 |
| 20260504210120 | 78 | 306 | 5.0 | 8.0 | 0.00 | 0.00 | 0.00 | 33 | 1013.6 |
| 20260504205618 | 78 | 214 | 7.0 | 11.0 | 0.00 | 0.00 | 0.00 | 34 | 1013.5 |
| 20260504205115 | 78 | 212 | 6.0 | 8.0 | 0.00 | 0.00 | 0.00 | 36 | 1013.5 |
| 20260504204614 | 79 | 181 | 8.0 | 10.0 | 0.00 | 0.00 | 0.00 | 36 | 1013.5 |
| 20260504204112 | 78 | 197 | 10.0 | 13.0 | 0.00 | 0.00 | 0.00 | 36 | 1013.5 |
| 20260504203610 | 79 | 224 | 4.0 | 6.0 | 0.00 | 0.00 | 0.00 | 37 | 1013.5 |
| 20260504203108 | 78 | 221 | 8.0 | 11.0 | 0.00 | 0.00 | 0.00 | 36 | 1013.5 |
| 20260504202603 | 77 | 219 | 6.0 | 8.0 | 0.00 | 0.00 | 0.00 | 35 | 1013.6 |
| 20260504202100 | 78 | 181 | 9.0 | 11.0 | 0.00 | 0.00 | 0.00 | 36 | 1013.6 |
| 20260504201556 | 78 | 207 | 4.0 | 7.0 | 0.00 | 0.00 | 0.00 | 36 | 1013.7 |
| 20260504201055 | 78 | 218 | 8.0 | 9.0 | 0.00 | 0.00 | 0.00 | 35 | 1013.6 |
| 20260504200550 | 78 | 210 | 9.0 | 11.0 | 0.00 | 0.00 | 0.00 | 36 | 1013.6 |
| 20260504200047 | 78 | 207 | 6.0 | 8.0 | 0.00 | 0.00 | 0.00 | 35 | 1013.6 |
| 20260504195543 | 78 | 203 | 9.0 | 10.0 | 0.00 | 0.00 | 0.00 | 34 | 1013.8 |
| 20260504195040 | 81 | 305 | 2.0 | 4.0 | 0.00 | 0.00 | 0.00 | 33 | 1014.0 |
| 20260504194537 | 79 | 121 | 5.0 | 9.0 | 0.00 | 0.00 | 0.00 | 35 | 1013.8 |
| 20260504194032 | 80 | 348 | 3.0 | 4.0 | 0.00 | 0.00 | 0.00 | 35 | 1014.0 |
| 20260504193529 | 78 | 185 | 7.0 | 13.0 | 0.00 | 0.00 | 0.00 | 35 | 1013.9 |
| 20260504193028 | 79 | 154 | 2.0 | 2.0 | 0.00 | 0.00 | 0.00 | 35 | 1014.2 |
| 20260504192526 | 79 | 213 | 4.0 | 4.0 | 0.00 | 0.00 | 0.00 | 35 | 1014.2 |
| 20260504192024 | 78 | 202 | 7.0 | 9.0 | 0.00 | 0.00 | 0.00 | 36 | 1014.3 |
| 20260504191521 | 79 | 189 | 4.0 | 6.0 | 0.00 | 0.00 | 0.00 | 39 | 1014.3 |
| 20260504191017 | 80 | 273 | 3.0 | 4.0 | 0.00 | 0.00 | 0.00 | 36 | 1014.3 |
| 20260504190514 | 79 | 10 | 3.0 | 4.0 | 0.00 | 0.00 | 0.00 | 35 | 1014.3 |
| 20260504190010 | 78 | 48 | 1.0 | 2.0 | 0.00 | 0.00 | 0.00 | 38 | 1014.4 |
| 20260504185507 | 79 | 19 | 1.0 | 2.0 | 0.00 | 0.00 | 0.00 | 38 | 1014.5 |
| 20260504185003 | 77 | 340 | 3.0 | 4.0 | 0.00 | 0.00 | 0.00 | 37 | 1014.7 |
| 20260504184459 | 78 | 191 | 5.0 | 7.0 | 0.00 | 0.00 | 0.00 | 37 | 1014.8 |
| 20260504183954 | 78 | 194 | 11.0 | 14.0 | 0.00 | 0.00 | 0.00 | 38 | 1014.7 |
| 20260504183452 | 78 | 189 | 7.0 | 10.0 | 0.00 | 0.00 | 0.00 | 38 | 1014.8 |
| 20260504182950 | 77 | 52 | 1.0 | 2.0 | 0.00 | 0.00 | 0.00 | 39 | 1015.1 |
| 20260504182446 | 79 | 190 | 9.0 | 10.0 | 0.00 | 0.00 | 0.00 | 35 | 1015.1 |
| 20260504181944 | 78 | 79 | 2.0 | 2.0 | 0.00 | 0.00 | 0.00 | 37 | 1015.0 |
| 20260504181440 | 78 | 348 | 4.0 | 6.0 | 0.00 | 0.00 | 0.00 | 38 | 1015.0 |
| 20260504180939 | 77 | 180 | 6.0 | 8.0 | 0.00 | 0.00 | 0.00 | 38 | 1015.0 |
| 20260504180438 | 78 | 211 | 10.0 | 13.0 | 0.00 | 0.00 | 0.00 | 38 | 1015.4 |
| 20260504175935 | 79 | 224 | 3.0 | 6.0 | 0.00 | 0.00 | 0.00 | 36 | 1015.2 |
| 20260504175432 | 79 | 272 | 6.0 | 9.0 | 0.00 | 0.00 | 0.00 | 37 | 1015.0 |
| 20260504174930 | 77 | 95 | 5.0 | 7.0 | 0.00 | 0.00 | 0.00 | 38 | 1015.1 |
| 20260504174428 | 76 | 199 | 7.0 | 8.0 | 0.00 | 0.00 | 0.00 | 41 | 1015.2 |
| 20260504173925 | 76 | 240 | 8.0 | 9.0 | 0.00 | 0.00 | 0.00 | 39 | 1015.1 |
| 20260504173421 | 75 | 36 | 2.0 | 2.0 | 0.00 | 0.00 | 0.00 | 41 | 1015.4 |
| 20260504172919 | 76 | 194 | 11.0 | 13.0 | 0.00 | 0.00 | 0.00 | 38 | 1015.5 |
| 20260504172414 | 76 | 204 | 5.0 | 8.0 | 0.00 | 0.00 | 0.00 | 39 | 1015.6 |
| 20260504171911 | 75 | 216 | 7.0 | 11.0 | 0.00 | 0.00 | 0.00 | 42 | 1015.8 |
| 20260504171408 | 75 | 210 | 5.0 | 9.0 | 0.00 | 0.00 | 0.00 | 42 | 1015.6 |
| 20260504170905 | 75 | 191 | 6.0 | 7.0 | 0.00 | 0.00 | 0.00 | 42 | 1015.8 |
| 20260504170402 | 74 | 205 | 6.0 | 8.0 | 0.00 | 0.00 | 0.00 | 44 | 1015.7 |
| 20260504160320 | 73 | 196 | 4.0 | 7.0 | 0.00 | 0.00 | 0.00 | 44 | 1016.4 |
| 20260504150745 | 70 | 167 | 10.0 | 13.0 | 0.00 | 0.00 | 0.00 | 49 | 1016.8 |
| 20260504150242 | 71 | 188 | 6.0 | 7.0 | 0.00 | 0.00 | 0.00 | 50 | 1016.8 |
| 20260504141211 | 68 | 257 | 7.0 | 8.0 | 0.00 | 0.00 | 0.00 | 56 | 1016.9 |
| 20260504140708 | 68 | 213 | 6.0 | 8.0 | 0.00 | 0.00 | 0.00 | 58 | 1017.2 |
| 20260504140203 | 67 | 185 | 6.0 | 8.0 | 0.00 | 0.00 | 0.00 | 60 | 1017.0 |
| 20260504130632 | 63 | 216 | 5.0 | 9.0 | 0.00 | 0.00 | 0.00 | 69 | 1017.6 |
| 20260504130129 | 62 | 192 | 7.0 | 9.0 | 0.00 | 0.00 | 0.00 | 69 | 1017.8 |
| 20260504110520 | 51 | 100 | 1.0 | 1.0 | 0.00 | 0.00 | 0.00 | 95 | 1018.0 |
| 20260504100437 | 48 | 84 | 0.0 | 0.0 | 0.00 | 0.00 | 0.00 | 95 | 1018.0 |